Content
SEND FEEDBACK

Daily
Averages
Monthly
Summary
United States of America

STATE CAMP, WASHINGTON


Home > North America > United States > Washington
Elevation: 642 feet     Latitude: 46 19N     Longitude: 123 16W

WEATHER
 
SELECT A DAY
Number of Records: 260,046;   Date Range: 1/1/95 - 7/29/14
 
SHARE

PRINT THIS DATA

[ ← Previous Day ]
WEATHER ALMANAC - JANUARY 23, 2013
[ Next Day → ]
[ °C ]   °F
Weather ElementAverageHighLow
Temperature35.3 °F35.6 °F (12:35 am)33.8 °F (5:35 am)
Dewpoint26.8 °F32 °F (10:55 pm)23 °F (1:15 am)
Humidity71.9 %87 % (3:15 pm)60 % (1:15 am)
Barometer30.00 in30.21 in (11:15 pm)29.91 in (4:55 am)
Wind Speed9.4 mph18.4 mph (12:15 pm)
Wind Gust24.2 mph (12:15 pm)
Weather ElementAverage
Visibility7.7 mi
Wind DirectionSE (139.1 °)

Weather ElementTotal
Precipitation0.11 in
Heating Degree Days30.3 (Base 65)
Averaged from 70 records on January 23, 2013
WEATHER CONDITIONS BREAKOUT
WIND DIRECTION BREAKOUT
WEATHER BY HOUR - JANUARY 23, 2013
[ °C ]   °F
Local TimeTemperatureDewpointHumidityBarometerVisibilityWind DirectionWind SpeedGust SpeedPrecipitationEventsConditions
12:35 AM35.6 °F24.8 °F65 %29.93 in10.0 miEast (100°)4.6 mphOvercast
12:55 AM35.6 °F24.8 °F65 %29.98 in10.0 miSE (140°)10.4 mphOvercast
1:15 AM35.6 °F23.0 °F60 %29.97 in10.0 miSE (130°)10.4 mphOvercast
1:35 AM35.6 °F23.0 °F60 %29.96 in10.0 miSE (140°)10.4 mphOvercast
1:55 AM35.6 °F23.0 °F60 %29.97 in10.0 miSE (130°)6.9 mphOvercast
2:15 AM35.6 °F23.0 °F60 %29.98 in10.0 miSE (130°)8.1 mphOvercast
2:35 AM35.6 °F23.0 °F60 %29.98 in10.0 miSSE (150°)9.2 mphOvercast
2:55 AM35.6 °F23.0 °F60 %29.98 in10.0 miSSE (150°)10.4 mph16.1 mphOvercast
3:15 AM35.6 °F23.0 °F60 %29.96 in10.0 miSouth (170°)6.9 mphOvercast
3:35 AM35.6 °F23.0 °F60 %29.93 in10.0 miSE (140°)9.2 mphOvercast
3:55 AM35.6 °F23.0 °F60 %29.95 in10.0 miSSE (160°)9.2 mphOvercast
4:15 AM35.6 °F23.0 °F60 %29.95 in10.0 miSE (140°)8.1 mph16.1 mphOvercast
4:35 AM35.6 °F24.8 °F65 %29.95 in10.0 miSSE (150°)6.9 mphOvercast
4:55 AM35.6 °F23.0 °F60 %29.91 in10.0 miEast (90°)6.9 mphOvercast
5:15 AM35.6 °F23.0 °F60 %29.94 in10.0 miSouth (190°)10.4 mphOvercast
5:35 AM33.8 °F23.0 °F65 %29.96 in10.0 miSSE (150°)5.8 mphOvercast
5:55 AM35.6 °F23.0 °F60 %29.95 in10.0 miSE (140°)5.8 mphOvercast
6:15 AM35.6 °F23.0 °F60 %29.94 in10.0 miCalmOvercast
6:35 AM35.6 °F23.0 °F60 %29.92 in10.0 miSSW (200°)4.6 mphOvercast
6:55 AM35.6 °F24.8 °F65 %29.93 in10.0 miSSE (160°)4.6 mphOvercast
7:15 AM35.6 °F24.8 °F65 %29.92 in10.0 miSE (140°)4.6 mphOvercast
7:35 AM35.6 °F24.8 °F65 %29.92 in10.0 miSE (130°)8.1 mphOvercast
7:55 AM35.6 °F24.8 °F65 %29.91 in10.0 miSSE (150°)5.8 mphOvercast
8:15 AM35.6 °F24.8 °F65 %29.91 in10.0 miSE (140°)10.4 mphOvercast
8:35 AM35.6 °F23.0 °F60 %29.93 in10.0 miSE (140°)10.4 mphOvercast
8:55 AM35.6 °F23.0 °F60 %29.93 in10.0 miSSE (150°)4.6 mphOvercast
9:15 AM35.6 °F23.0 °F60 %29.93 in10.0 miSE (140°)4.6 mphOvercast
9:35 AM35.6 °F24.8 °F65 %29.93 in10.0 miSE (140°)8.1 mphOvercast
9:55 AM35.6 °F24.8 °F65 %29.94 in10.0 miSSE (150°)9.2 mphOvercast
10:15 AM35.6 °F24.8 °F65 %29.93 in10.0 miSE (140°)8.1 mphOvercast
10:35 AM35.6 °F23.0 °F60 %29.93 in10.0 miSE (140°)10.4 mph16.1 mphOvercast
10:55 AM35.6 °F23.0 °F60 %29.93 in10.0 miSE (140°)9.2 mph16.1 mphOvercast
11:15 AM35.6 °F24.8 °F65 %29.93 in10.0 miSE (140°)13.8 mph19.6 mphOvercast
11:35 AM35.6 °F24.8 °F65 %29.93 in10.0 miSE (140°)11.5 mph16.1 mphOvercast
11:55 AM35.6 °F24.8 °F65 %29.93 in10.0 miSE (140°)16.1 mph23.0 mphOvercast
12:15 PM35.6 °F26.6 °F70 %29.93 in8.0 miSE (140°)18.4 mph24.2 mphOvercast
12:35 PM35.6 °F26.6 °F70 %29.93 in6.0 miSE (130°)13.8 mph20.7 mph0.01 inOvercast
1:15 PM35.6 °F28.4 °F75 %29.91 in6.0 miSE (140°)12.7 mph19.6 mph0.01 inOvercast
1:35 PM33.8 °F28.4 °F81 %29.91 in5.0 miSE (140°)10.4 mph20.7 mph0.01 inOvercast
1:55 PM33.8 °F28.4 °F81 %29.93 in5.0 miSE (140°)9.2 mph0.02 inOvercast
2:15 PM33.8 °F28.4 °F81 %29.95 in4.0 miSE (140°)6.9 mphOvercast
2:35 PM33.8 °F28.4 °F81 %29.95 in5.0 miSE (140°)12.7 mphOvercast
2:55 PM33.8 °F28.4 °F81 %29.96 in4.0 miSE (130°)11.5 mph17.3 mph0.01 inOvercast
3:15 PM33.8 °F30.2 °F87 %29.98 in3.0 miSE (140°)13.8 mphOvercast
3:35 PM33.8 °F30.2 °F87 %30.00 in4.0 miSE (140°)12.7 mph18.4 mph0.01 inOvercast
3:55 PM35.6 °F30.2 °F81 %30.01 in5.0 miSE (140°)10.4 mph0.01 inOvercast
4:15 PM35.6 °F30.2 °F81 %30.02 in5.0 miSSE (150°)10.4 mph0.01 inOvercast
4:35 PM35.6 °F30.2 °F81 %30.03 in5.0 miSE (140°)9.2 mph0.01 inOvercast
4:55 PM35.6 °F30.2 °F81 %30.03 in5.0 miSE (140°)10.4 mph0.01 inOvercast
5:15 PM35.6 °F30.2 °F81 %30.04 in5.0 miSE (130°)10.4 mph17.3 mphOvercast
5:35 PM35.6 °F30.2 °F81 %30.04 in6.0 miSE (140°)9.2 mphOvercast
5:55 PM35.6 °F30.2 °F81 %30.05 in7.0 miSE (140°)10.4 mphOvercast
6:15 PM35.6 °F30.2 °F81 %30.06 in7.0 miSE (140°)12.7 mphOvercast
6:35 PM35.6 °F30.2 °F81 %30.07 in6.0 miSE (130°)12.7 mphOvercast
6:55 PM35.6 °F30.2 °F81 %30.07 in7.0 miSE (140°)10.4 mphOvercast
7:15 PM35.6 °F30.2 °F81 %30.09 in7.0 miSSE (150°)10.4 mph16.1 mphOvercast
7:35 PM35.6 °F30.2 °F81 %30.10 in6.0 miSE (140°)11.5 mph18.4 mphOvercast
7:55 PM33.8 °F30.2 °F87 %30.11 in6.0 miSE (140°)10.4 mph17.3 mphOvercast
8:15 PM33.8 °F30.2 °F87 %30.13 in5.0 miSE (130°)9.2 mphOvercast
8:35 PM35.6 °F30.2 °F81 %30.14 in5.0 miSSE (150°)11.5 mph16.1 mphOvercast
8:55 PM35.6 °F30.2 °F81 %30.15 in6.0 miSE (140°)10.4 mph18.4 mphOvercast
9:15 PM35.6 °F30.2 °F81 %30.16 in5.0 miSE (140°)9.2 mphOvercast
9:35 PM33.8 °F30.2 °F87 %30.17 in5.0 miSE (140°)9.2 mph16.1 mphOvercast
9:55 PM35.6 °F30.2 °F81 %30.17 in5.0 miSE (140°)8.1 mphOvercast
10:15 PM35.6 °F30.2 °F81 %30.18 in5.0 miSE (140°)9.2 mphOvercast
10:35 PM35.6 °F30.2 °F81 %30.19 in5.0 miSE (140°)9.2 mphOvercast
10:55 PM35.6 °F32.0 °F87 %30.20 in4.0 miSE (130°)9.2 mphOvercast
11:15 PM35.6 °F32.0 °F87 %30.21 in5.0 miSE (130°)9.2 mphOvercast
11:35 PM35.6 °F32.0 °F87 %30.21 in6.0 miSE (140°)9.2 mphOvercast
11:55 PM35.6 °F32.0 °F87 %30.21 in5.0 miSE (140°)10.4 mphOvercast
Hourly data recorded from KKLS, located miles away from State Camp, Washington







STORIES FROM OUR PARTNERS